Simultaneous Nadir Overpasses (SNOs) Predictions

Prediction of SNOs between METOP-A and NOAA-19 Satellite Orbit:

Table of predicted SNOs for the next 14.0 days since TLE Epoch: 4/19/2014
Index Date (METOP-A) Time (METOP-A) Lat,Lon (METOP-A) SZA (METOP-A ) Date (NOAA-19) Time (NOAA-19) Lat,Lon (NOAA-19) SZA (NOAA-19 ) Distance(km) Time Diff (sec)
1 04/28/2014 06:33:53 -74.37,-103.19 119.82 04/28/2014 06:32:42 -74.37,-104.88 119.76 50.58 71
2 04/28/2014 07:24:40 74.01, 63.24 59.83 04/28/2014 07:23:37 74.02, 63.29 59.85 1.76 63
3 04/28/2014 08:15:22 -74.01,-129.44 120.18 04/28/2014 08:14:38 -74.00,-129.42 120.18 0.84 44
4 04/28/2014 09:06:02 73.99, 37.85 59.80 04/28/2014 09:05:40 73.98, 37.86 59.79 0.83 22
5 04/28/2014 09:56:44 -73.99,-154.83 120.22 04/28/2014 09:56:41 -73.97,-154.85 120.24 2.45 3
6 04/28/2014 10:47:24 73.97, 12.47 59.76 04/28/2014 10:47:43 73.95, 12.43 59.73 2.83 19
7 04/28/2014 11:38:07 -73.92, 179.67 120.31 04/28/2014 11:38:44 -73.93, 179.72 120.30 2.11 37
8 04/28/2014 12:28:47 73.90, -13.04 59.67 04/28/2014 12:29:46 73.91, -13.00 59.67 1.69 59
9 04/28/2014 13:19:32 -73.75, 153.93 120.49 04/28/2014 13:20:45 -73.80, 154.53 120.46 19.46 73




NCC Satellite Simultaneous Nadir Overpasses (SNOs) Prediction Service
